Temp
18 19 19 20 20 21 21 21 21 22 22 23 23 24 24 24 24 24 25 25 25 25 25 23 24 24 25 25 23 20 21 26 27 28 28 28 27 27 26 25 24 24 22 22 21
17 18 19 19 20 21 21 21 21 22 23 23 23 24 24 25 25 25 26 25 25 25 24 24 25 26 25 23 23 19 21 29 30 29 29 28 28 28 28 26 24 23 23 22 22
17 18 19 19 20 21 21 21 21 22 23 23 23 24 24 24 25 27 26 25 25 25 25 25 27 24 22 25 25 27 26 31 31 31 30 29 29 29 27 24 24 23 23 23 21
17 18 19 19 20 21 21 21 22 22 23 23 23 24 24 24 25 26 26 25 25 25 25 24 23 23 22 24 28 27 31 31 31 30 30 29 29 29 27 25 24 23 23 23 23
17 18 18 19 20 21 21 22 22 22 23 23 23 24 24 23 26 26 26 25 25 25 22 22 20 20 24 26 27 28 31 31 31 31 30 30 29 29 26 25 24 24 24 24 24
18 18 19 19 20 21 22 22 22 23 23 23 23 24 24 23 27 27 26 25 25 24 24 23 24 23 24 24 24 24 31 30 30 30 29 29 29 27 26 25 24 24 24 24 24
18 18 19 20 21 22 22 22 23 23 23 24 24 24 24 26 27 27 27 26 26 25 24 27 28 25 25 23 24 23 28 29 30 30 29 29 27 26 26 25 25 25 25 24 24
18 19 19 20 21 22 22 22 23 23 24 24 24 24 26 28 28 27 27 27 26 26 27 28 28 26 22 22 22 22 23 25 29 30 28 28 24 27 26 26 25 25 26 25 23
19 19 20 20 22 23 22 23 24 24 24 24 24 24 25 28 27 28 27 26 27 27 28 29 29 23 21 19 19 21 21 23 24 30 29 27 25 27 27 26 26 26 26 25 24
19 19 20 21 22 23 23 23 24 24 24 24 24 23 27 28 28 28 27 28 28 28 28 29 29 20 19 18 18 20 21 22 22 27 29 27 26 27 27 27 26 27 26 25 24
19 20 21 21 23 23 24 24 24 24 24 25 27 27 30 29 29 29 28 29 29 30 27 30 27 21 20 21 23 23 22 22 25 26 22 24 27 27 27 27 27 27 26 25 25
19 20 21 22 23 24 24 24 26 27 27 28 28 28 29 31 30 29 29 29 29 27 30 28 27 29 24 24 25 23 23 23 21 25 22 22 22 22 24 28 27 27 27 25 25
20 20 22 22 23 24 24 25 26 27 26 28 29 29 31 31 30 30 30 30 29 28 29 28 31 29 28 27 23 24 23 23 23 20 19 20 19 21 24 25 28 28 27 26 25
20 21 22 23 24 24 25 26 26 27 23 27 29 30 31 31 30 31 31 30 30 28 29 29 32 34 32 31 30 28 29 29 24 23 19 21 20 19 21 22 22 28 27 26 25
20 21 21 22 23 24 25 26 26 26 22 30 30 31 31 31 31 31 31 31 29 29 30 29 30 31 32 32 32 31 32 29 28 26 21 20 19 19 19 23 22 27 28 27 26
20 21 22 22 23 24 25 25 26 23 24 31 31 30 29 31 31 32 32 32 32 30 30 29 32 32 32 32 31 32 32 30 30 25 24 21 21 21 19 22 22 25 27 27 25
21 21 22 22 23 23 24 25 22 23 32 30 29 30 29 29 29 30 30 30 27 27 26 28 29 31 33 31 30 30 28 23 25 24 25 22 21 21 24 24 25 25 27 27 26
21 22 22 23 23 23 24 23 23 28 29 32 32 30 28 29 29 30 29 27 28 29 26 25 26 30 31 29 28 28 27 23 25 24 27 24 25 25 26 26 25 26 28 29 25
21 22 22 23 23 23 24 21 24 27 31 30 30 30 29 30 30 29 28 27 28 27 25 26 26 31 32 31 29 28 26 27 26 27 26 26 25 23 23 23 21 24 25 22 19
21 22 23 23 23 23 22 21 25 28 30 28 28 28 26 28 28 29 28 29 30 30 29 27 25 28 31 31 31 28 29 26 23 25 26 26 25 23 24 22 22 20 19 18 17
22 21 24 24 23 24 21 24 27 30 30 28 27 26 26 27 27 27 29 30 31 31 30 28 25 27 29 29 28 27 26 27 26 24 24 24 24 26 21 20 18 17 17 16 16
20 21 25 24 23 24 22 26 29 29 29 29 28 27 26 26 25 26 27 28 31 30 29 28 26 25 28 28 30 28 27 27 22 23 24 23 21 20 18 17 16 14 14 14 14
18 21 25 25 21 23 26 27 29 28 28 28 27 28 27 26 24 25 27 29 30 27 24 29 25 23 24 25 29 29 28 27 26 24 23 24 20 18 17 15 14 14 13 14 15
16 21 25 25 25 24 24 26 27 29 28 28 26 27 25 24 24 25 26 29 30 28 30 29 26 23 21 25 28 28 29 29 27 23 24 21 19 18 18 16 14 13 12 13 13
18 22 21 21 23 24 24 24 25 26 28 27 26 26 25 24 24 24 25 26 28 29 30 26 25 27 25 27 27 28 29 28 25 26 25 22 21 19 18 16 15 13 12 12 12
18 18 19 20 23 25 24 24 25 27 25 25 24 26 25 24 24 24 25 23 25 23 28 26 22 27 24 25 27 26 25 27 26 27 23 20 18 18 17 16 14 14 14 13 14
16 16 18 20 22 23 23 25 26 25 26 26 25 24 24 25 26 27 27 25 23 22 20 21 22 22 22 24 24 20 21 25 26 25 24 21 19 18 17 16 15 15 15 15 15
Height
1521 1518 1516 1514 1512 1511 1510 1508 1507 1506 1505 1504 1503 1503 1502 1501 1501 1501 1500 1501 1501 1504 1505 1507 1509 1514 1511 1508 1511 1512 1517 1511 1505 1503 1506 1507 1509 1515 1518 1521 1528 1533 1539 1547 1552
1520 1518 1515 1514 1511 1509 1508 1507 1505 1505 1504 1503 1502 1502 1501 1500 1500 1499 1499 1500 1501 1503 1506 1509 1513 1515 1509 1516 1512 1510 1517 1498 1494 1495 1502 1505 1508 1513 1518 1524 1532 1538 1546 1550 1553
1520 1517 1514 1512 1510 1508 1507 1505 1504 1504 1503 1502 1502 1501 1501 1500 1500 1496 1496 1499 1501 1503 1505 1511 1511 1511 1508 1515 1515 1508 1506 1495 1496 1497 1500 1505 1510 1513 1519 1529 1531 1535 1543 1549 1553
1519 1516 1514 1511 1509 1507 1505 1504 1503 1503 1502 1501 1501 1501 1501 1501 1502 1495 1495 1497 1501 1502 1505 1514 1511 1513 1512 1506 1504 1507 1495 1497 1500 1502 1506 1509 1511 1514 1519 1529 1534 1540 1544 1548 1552
1519 1516 1513 1510 1508 1506 1504 1503 1502 1501 1501 1500 1500 1500 1501 1501 1496 1496 1497 1498 1499 1505 1512 1515 1513 1517 1513 1508 1502 1502 1497 1499 1502 1505 1509 1512 1512 1516 1525 1531 1537 1543 1547 1548 1550
1518 1515 1512 1509 1507 1504 1503 1501 1500 1500 1500 1499 1499 1499 1501 1501 1494 1496 1498 1499 1499 1508 1508 1511 1516 1515 1509 1513 1511 1510 1499 1502 1506 1510 1513 1517 1523 1525 1534 1536 1540 1545 1546 1547 1549
1517 1514 1511 1508 1506 1503 1501 1500 1499 1499 1499 1499 1499 1499 1499 1495 1494 1497 1499 1501 1501 1505 1512 1507 1507 1509 1503 1512 1516 1512 1507 1505 1509 1512 1518 1521 1529 1533 1535 1538 1543 1545 1546 1547 1551
1516 1513 1510 1507 1504 1502 1501 1499 1498 1498 1498 1499 1499 1499 1495 1492 1493 1496 1499 1501 1503 1503 1505 1509 1508 1510 1518 1524 1528 1528 1519 1524 1510 1512 1519 1521 1541 1531 1536 1539 1542 1543 1544 1547 1552
1515 1512 1509 1506 1503 1501 1500 1499 1498 1498 1498 1499 1500 1500 1496 1493 1491 1494 1498 1499 1502 1505 1507 1508 1510 1518 1526 1527 1541 1537 1541 1535 1524 1508 1515 1522 1536 1531 1535 1540 1542 1543 1544 1547 1552
1514 1511 1507 1504 1502 1501 1499 1499 1498 1498 1498 1499 1500 1504 1491 1489 1489 1491 1496 1498 1501 1502 1505 1507 1510 1524 1533 1541 1569 1545 1547 1537 1534 1515 1510 1521 1528 1531 1534 1536 1539 1541 1544 1547 1550
1512 1509 1506 1503 1501 1500 1500 1499 1501 1501 1499 1492 1490 1485 1485 1485 1488 1491 1493 1497 1498 1500 1501 1499 1509 1523 1523 1520 1517 1523 1531 1528 1518 1520 1537 1532 1530 1532 1532 1533 1535 1537 1540 1544 1549
1510 1508 1505 1502 1501 1500 1500 1499 1499 1499 1494 1489 1488 1487 1483 1485 1488 1489 1492 1494 1495 1498 1492 1499 1505 1491 1501 1507 1507 1521 1527 1525 1535 1529 1543 1539 1542 1538 1532 1529 1531 1534 1538 1542 1548
1509 1506 1503 1501 1500 1500 1500 1499 1498 1497 1495 1484 1482 1483 1483 1486 1486 1486 1489 1490 1491 1494 1489 1494 1487 1488 1493 1501 1510 1513 1518 1518 1523 1535 1546 1542 1552 1536 1525 1529 1530 1531 1535 1540 1544
1507 1504 1501 1500 1502 1500 1498 1498 1499 1498 1504 1484 1477 1480 1480 1483 1484 1481 1484 1488 1488 1492 1486 1486 1476 1478 1482 1488 1488 1505 1488 1500 1525 1529 1561 1540 1569 1548 1528 1525 1532 1525 1530 1536 1539
1506 1503 1501 1500 1499 1499 1498 1498 1498 1498 1531 1469 1474 1474 1476 1481 1476 1479 1480 1483 1486 1485 1486 1492 1482 1483 1484 1485 1479 1487 1476 1492 1499 1509 1530 1544 1553 1538 1530 1521 1522 1522 1522 1524 1528
1504 1502 1500 1499 1498 1500 1498 1498 1498 1509 1520 1471 1469 1472 1476 1477 1478 1475 1478 1480 1482 1483 1481 1482 1475 1476 1479 1478 1479 1478 1480 1484 1484 1505 1534 1526 1530 1535 1526 1516 1517 1513 1517 1520 1526
1503 1500 1498 1497 1498 1497 1498 1498 1510 1519 1465 1472 1474 1470 1474 1478 1478 1476 1478 1482 1493 1502 1502 1488 1482 1473 1473 1483 1480 1485 1497 1536 1535 1532 1525 1507 1532 1526 1501 1508 1510 1510 1515 1521 1528
1499 1497 1496 1496 1497 1498 1500 1502 1517 1483 1476 1462 1460 1467 1477 1472 1475 1474 1479 1489 1481 1485 1499 1510 1512 1477 1468 1475 1487 1488 1496 1533 1541 1543 1520 1508 1517 1504 1489 1504 1509 1512 1514 1519 1530
1497 1496 1495 1496 1496 1498 1501 1513 1500 1481 1469 1471 1466 1474 1476 1467 1470 1472 1476 1482 1476 1477 1502 1502 1497 1466 1464 1461 1472 1486 1501 1484 1506 1498 1516 1505 1505 1500 1503 1505 1510 1512 1520 1528 1536
1496 1495 1493 1494 1497 1498 1501 1504 1488 1478 1474 1474 1485 1478 1490 1479 1477 1473 1474 1466 1469 1466 1468 1480 1502 1471 1463 1456 1465 1476 1474 1506 1509 1528 1529 1512 1508 1515 1508 1511 1516 1523 1530 1537 1537
1497 1496 1494 1495 1497 1499 1505 1494 1481 1475 1474 1480 1485 1487 1484 1484 1480 1477 1473 1462 1458 1460 1461 1468 1484 1483 1470 1476 1480 1482 1488 1485 1492 1506 1529 1533 1522 1490 1505 1511 1522 1534 1541 1538 1533
1498 1497 1494 1494 1497 1494 1495 1485 1478 1476 1478 1479 1481 1483 1485 1482 1485 1483 1480 1472 1463 1460 1464 1460 1475 1494 1481 1467 1463 1465 1477 1482 1516 1516 1503 1511 1529 1510 1515 1517 1513 1526 1532 1538 1539
1500 1496 1493 1494 1500 1494 1484 1478 1476 1477 1478 1480 1481 1479 1479 1484 1493 1481 1475 1466 1465 1464 1471 1460 1479 1506 1502 1483 1465 1470 1471 1472 1476 1488 1506 1517 1531 1516 1528 1538 1531 1531 1537 1543 1546
1505 1497 1492 1492 1490 1489 1486 1481 1480 1477 1480 1481 1482 1481 1484 1488 1482 1485 1479 1468 1467 1468 1463 1462 1473 1491 1518 1497 1477 1480 1471 1468 1478 1504 1501 1507 1520 1524 1527 1535 1536 1541 1542 1545 1549
1508 1501 1504 1497 1493 1488 1486 1485 1485 1483 1478 1480 1482 1483 1485 1492 1488 1488 1479 1475 1469 1470 1465 1469 1486 1476 1481 1478 1476 1475 1474 1477 1486 1481 1496 1503 1506 1509 1514 1524 1531 1536 1543 1548 1552
1513 1512 1506 1501 1494 1489 1488 1490 1487 1483 1485 1486 1488 1484 1482 1487 1486 1488 1481 1480 1480 1472 1468 1469 1490 1477 1489 1483 1481 1488 1487 1476 1480 1478 1492 1502 1520 1510 1521 1525 1533 1538 1542 1543 1548
1517 1515 1513 1502 1496 1493 1490 1486 1486 1485 1487 1486 1484 1485 1485 1481 1479 1476 1475 1474 1477 1481 1482 1485 1489 1494 1505 1492 1490 1514 1509 1494 1486 1486 1491 1506 1516 1519 1524 1527 1530 1536 1540 1541 1545
Wind_Speed
12 12 11 11 10 10 9 10 9 7 6 6 6 7 6 6 6 8 8 7 7 4 5 3 1 5 12 10 5 5 1 1 8 9 18 26 20 24 30 41 28 14 33 35 32
14 13 12 11 10 10 10 9 9 7 5 7 7 6 7 7 8 13 6 6 10 8 7 4 8 5 12 5 13 2 2 7 10 10 18 26 22 23 18 25 31 35 32 34 30
15 14 13 12 11 10 10 9 8 7 5 7 7 7 6 6 8 12 13 11 8 7 6 6 12 19 16 9 15 5 5 6 14 18 23 22 21 25 28 20 33 39 37 32 32
16 15 14 14 12 11 10 9 8 7 5 6 7 6 6 5 3 7 5 8 11 10 8 10 15 16 5 2 2 3 14 17 17 24 22 14 20 19 29 31 36 36 35 32 28
16 16 15 14 13 12 10 9 7 7 5 6 7 6 5 5 12 7 7 10 10 10 9 21 23 7 4 7 8 3 8 18 22 20 17 16 10 21 33 36 35 32 31 31 30
17 17 16 15 13 12 11 10 7 6 5 6 7 6 5 6 5 9 7 9 14 10 6 12 7 10 5 9 8 24 14 21 20 12 20 15 16 25 30 34 31 29 30 30 29
17 17 16 15 13 11 11 9 6 5 5 5 6 5 8 14 9 9 7 10 5 6 11 14 3 6 6 7 25 15 6 12 14 14 13 16 13 13 27 29 27 24 24 31 25
17 17 16 15 12 10 9 7 4 3 4 5 5 5 7 3 8 13 11 8 4 6 4 4 11 15 11 8 14 9 4 3 9 16 4 9 11 18 27 26 24 23 21 24 32
17 16 16 14 11 8 7 3 2 1 2 4 3 3 9 12 13 10 11 13 11 8 4 4 5 11 8 15 9 6 4 5 8 16 10 6 13 22 27 24 22 22 18 27 22
17 16 15 13 9 7 4 3 2 4 2 4 5 5 15 14 17 17 13 15 15 13 13 13 7 6 5 7 6 13 7 4 5 3 12 9 13 16 26 26 24 22 20 22 21
18 16 14 11 7 5 1 5 3 2 9 12 11 8 2 11 13 18 14 15 14 18 8 15 7 10 17 22 20 18 11 7 2 6 6 10 9 13 22 23 24 28 25 29 26
20 17 13 9 5 4 3 5 9 9 9 18 22 22 23 12 13 15 17 18 11 8 11 4 11 12 23 23 19 19 10 4 12 7 6 12 3 10 12 22 27 27 28 31 27
20 18 13 7 4 3 5 6 5 11 5 15 24 18 16 10 14 16 18 19 13 10 14 8 9 26 21 22 22 19 23 12 14 16 5 11 3 10 5 1 23 28 31 32 32
21 18 12 4 2 3 8 5 7 9 2 7 13 17 15 11 14 19 22 19 9 14 15 9 10 0 6 5 14 9 26 19 23 12 7 4 4 5 8 6 9 27 29 32 34
20 17 10 3 3 4 7 2 10 7 3 9 12 7 14 18 8 14 16 23 11 12 8 10 11 9 8 8 5 6 9 22 26 12 8 4 5 7 6 10 7 19 31 36 42
19 15 8 4 5 3 9 7 10 2 5 7 10 8 8 17 14 18 15 12 12 10 13 11 22 4 3 9 7 10 4 9 8 6 3 13 6 5 7 13 8 8 22 32 40
17 12 7 6 5 3 2 7 1 3 2 6 8 8 9 8 9 9 8 3 2 4 6 9 13 13 5 2 8 9 4 4 4 2 8 14 3 7 16 11 16 9 9 10 28
15 8 4 5 8 4 3 2 3 8 8 4 4 9 8 10 10 10 6 7 8 6 6 5 8 14 10 9 8 7 6 5 4 3 7 19 8 5 16 18 8 12 19 17 13
13 5 4 3 1 3 7 3 5 5 7 7 6 3 6 6 9 9 10 9 9 11 9 5 11 15 14 7 10 7 6 10 6 5 3 3 6 8 5 11 14 13 17 13 10
16 6 6 4 3 6 2 5 6 14 8 10 6 7 8 9 7 7 7 9 9 10 9 8 6 10 10 8 7 8 6 4 4 3 4 4 6 9 14 11 11 11 16 20 26
10 6 7 3 7 5 3 6 9 9 10 6 6 8 10 9 12 9 5 8 10 6 10 7 5 12 5 4 6 3 4 4 1 3 1 2 3 14 19 20 20 22 21 23 29
6 3 8 7 6 7 5 6 7 5 9 2 2 7 7 9 9 9 10 7 25 11 7 9 5 3 5 8 5 8 7 4 5 9 4 5 2 16 17 21 27 23 23 23 26
15 6 6 8 3 4 10 17 2 8 6 5 4 2 6 7 7 7 12 21 23 6 4 1 1 3 10 10 6 5 9 8 3 1 5 3 5 12 25 12 19 23 21 21 19
7 4 5 9 13 9 9 6 5 6 4 5 6 9 8 8 9 7 10 10 25 4 8 9 1 6 6 4 5 4 5 6 2 1 3 2 9 13 18 16 20 18 19 20 18
3 4 15 4 7 7 8 9 9 7 5 6 4 6 7 5 6 8 9 11 18 9 2 3 1 4 7 9 8 7 7 5 9 6 4 10 9 13 14 16 22 20 17 15 13
8 8 13 18 19 7 5 6 10 4 8 8 6 9 8 6 7 7 8 7 3 9 2 4 5 3 9 10 10 11 24 6 6 6 14 21 15 19 26 29 23 20 20 21 19
11 15 10 12 9 7 6 3 6 8 7 15 12 7 10 11 18 17 19 6 5 4 6 7 3 1 3 3 7 9 12 14 6 13 12 8 10 21 15 21 24 24 22 23 22
Wind_Direction
355 350 344 340 333 323 316 312 307 305 305 304 296 287 278 267 253 250 230 254 252 259 230 160 166 163 203 222 244 355 278 63 153 114 108 105 110 122 129 132 142 139 141 139 143
355 349 344 340 334 326 318 313 306 301 298 292 289 279 274 268 261 248 197 226 240 260 217 191 211 195 256 178 175 95 195 86 119 122 129 123 129 137 128 133 121 129 139 142 147
355 350 343 340 334 327 319 315 307 298 290 281 283 278 275 280 294 257 245 229 241 209 214 266 303 78 272 190 196 240 259 146 138 146 109 119 142 140 120 126 139 140 147 151 153
353 350 345 341 335 329 322 315 307 294 281 270 273 266 268 267 308 258 202 188 181 210 219 329 342 156 246 161 153 266 95 100 104 108 119 156 139 140 129 134 137 142 151 153 162
351 348 345 341 335 330 325 317 307 292 274 264 265 260 269 259 257 198 155 156 184 174 34 23 28 324 254 290 325 238 130 106 92 113 141 104 112 114 124 132 139 148 155 164 168
349 346 345 341 336 332 329 321 307 286 265 256 261 259 259 250 240 181 149 157 169 151 168 17 233 214 286 28 30 325 102 98 102 120 89 81 93 108 124 132 141 158 168 174 176
347 345 343 341 337 335 336 328 307 278 255 246 249 254 250 251 224 178 166 165 170 221 213 219 196 155 342 51 359 319 308 111 125 110 126 119 109 114 129 136 152 175 185 188 175
346 344 341 340 336 338 335 328 318 262 242 230 230 240 256 228 232 195 179 171 161 249 275 69 138 93 31 66 21 349 21 63 154 129 83 130 133 135 141 147 162 173 179 139 149
347 344 339 338 335 339 337 343 47 162 204 214 204 235 271 205 213 217 202 206 208 193 236 250 186 102 34 53 14 353 344 359 324 147 142 116 141 143 150 161 177 183 172 144 152
346 344 337 334 330 340 347 51 85 130 154 195 199 270 232 215 211 212 208 226 205 221 235 210 188 85 118 110 156 219 260 234 242 163 146 144 145 148 163 178 177 170 165 160 152
345 344 336 330 318 326 276 325 337 197 206 219 216 215 301 209 183 203 215 225 251 226 218 212 174 167 181 172 189 197 214 203 150 268 62 26 118 162 185 181 172 170 178 162 167
344 343 335 325 290 283 333 334 4 331 300 257 254 262 262 167 179 207 208 223 229 253 250 215 232 205 175 187 169 184 183 167 47 350 87 108 323 300 281 193 177 173 177 165 166
343 343 338 322 243 236 314 329 357 339 288 285 239 252 240 175 215 212 213 218 239 247 259 253 228 158 166 190 170 194 194 188 147 96 72 98 325 280 269 321 194 177 180 166 169
343 343 340 322 168 217 286 12 324 320 305 253 198 240 217 193 253 244 209 213 231 252 279 290 301 313 319 247 201 235 204 174 150 137 164 222 213 289 277 289 328 174 173 170 171
341 341 336 290 258 242 350 315 317 305 305 127 178 233 203 207 246 211 234 199 234 265 259 264 292 328 178 245 351 273 9 158 191 158 130 224 94 246 282 246 270 199 180 176 178
336 334 326 282 242 296 343 338 310 355 246 170 150 187 206 203 250 274 205 242 228 246 275 281 294 264 14 335 334 322 17 324 308 134 201 194 147 257 204 211 231 171 177 180 178
332 322 308 247 162 15 263 302 6 225 275 168 165 171 193 221 215 256 181 211 185 281 285 291 283 287 151 249 305 299 350 314 321 281 240 155 213 231 217 204 216 171 190 158 182
330 309 294 238 222 53 318 321 255 265 241 269 126 185 190 193 236 216 189 188 232 241 282 260 283 243 231 174 197 231 193 171 263 310 314 150 152 226 199 189 165 194 180 210 321
339 282 291 94 115 164 261 235 223 239 357 4 21 326 280 262 195 205 222 196 218 197 197 266 288 298 307 178 156 250 272 235 245 258 301 119 23 18 40 129 133 158 201 211 79
341 300 254 138 214 155 233 253 283 318 321 24 2 1 329 314 314 226 231 216 210 225 195 239 256 279 304 107 187 171 238 354 341 288 262 159 170 144 141 134 158 124 124 119 107
346 318 136 181 142 228 232 246 273 304 66 34 345 329 319 328 342 324 317 278 196 228 209 242 181 273 14 272 181 318 273 282 149 162 234 347 308 153 142 127 114 113 118 105 98
11 297 158 169 193 210 228 240 265 331 109 106 262 293 299 321 324 332 329 331 339 355 213 220 179 193 260 299 242 188 243 227 131 280 213 175 65 57 93 113 115 105 94 96 100
338 276 178 182 245 274 262 249 299 320 356 338 308 282 323 310 322 324 322 320 326 39 15 304 46 41 334 333 340 176 234 214 244 121 248 159 138 112 95 111 111 110 112 122 125
337 298 155 196 238 268 295 332 342 195 206 299 320 334 326 321 313 299 310 307 316 359 30 1 27 139 199 249 256 294 316 268 275 316 276 139 131 140 135 130 118 120 126 134 138
296 335 14 327 340 341 20 8 334 328 351 26 1 320 285 274 279 297 301 301 305 287 12 49 309 337 304 316 349 342 91 350 13 260 84 171 144 153 125 125 123 127 127 129 140
17 355 333 303 314 320 330 292 278 317 22 347 316 295 307 288 271 269 283 293 2 332 320 335 287 305 296 16 328 29 10 12 26 18 90 90 78 112 112 113 126 139 148 147 147
10 6 326 286 302 312 269 18 359 8 326 334 333 346 321 304 345 326 314 103 121 118 2 350 10 289 135 348 352 32 346 356 35 45 89 101 139 125 127 134 147 156 160 150 147